CZ-11 R/B, 41847

Orbit data source: Space-Track

CZ-11 R/B, 41847 is space debris in SSO originally from a launch on Wed, 09 Nov 2016 UTC via a CHANG ZHENG 11 launch vehicle from the Jiuquan Satellite Launch Center, China (JSC). Debris objects in space refer to the collection of defunct objects orbiting the Earth. Examples of debris include non-operational satellites, rocket bodies, and fragments generated from explosions, collisions, or faulty payload assembly.

Loading next visibility...
Identifier
41847, 2016-066G
Orbit
SSO
Country
Flag of CNCN / PRC
Related business
Flag of CNXpeng Aeroht (CN)
Manufacturer
Kechuang Hangtian
Mission
Partially operational spacecraft
Bus & Motor
KS-1, Unknown motor
Mass
503 kg wet, 1 kg dry
Launch date (UTC)
2016-11-09 (9 years ago)
Launch vehicle
CHANG ZHENG 11
Launch site
Jiuquan Satellite Launch Center, China (JSC)
Object type
Payload
Rocket body
Debris
Shape & HBR
Unknown
Radar Cross Section
Large (>1 m²)

Expand to show TLE details & history
Last TLE update: 11 hours ago

TLE from 11 hours ago
0 CZ-11 R/B
1 41847U 16066G   26035.80186133  .00002390  00000-0  34371-3 0  9994
2 41847  98.3948 113.0052 0343298 170.9586 189.8007 14.44345736485689
Epoch: 2026-02-04T19:14Z
TLE epoch observation values (Epoch: 2026-02-04T19:14:40.818Z)
Latitude
-0.00005°
Longitude
49.37191°
Altitude
988.36 km
Speed
7.232 km/s
True Right ascension
07h 32m 01s
True Declination
0° 00' 00"
Sunlit
Object was in full shadow at epoch
Visualization orbit readout
Latitude
Unknown
Longitude
Unknown
Altitude
Unknown
Speed
Unknown
Apparent Right ascension
Unknown
Apparent Declination
Unknown
Sunlit
N/A
Visualization observer readout
Local Sidereal Time
08:32:09
Azimuth
Unknown
Elevation
Unknown
Doppler factor
Unknown
Orbital elements
Apogee altitude
985.69 km
Perigee altitude
496.874 km
Semi-major axis
7,119.419 km
Eccentricity
0.03433
Inclination
98.3948°
RAAN
113.0052°
Arg. of periapsis
170.9586°
True anomaly
189.15829°
Mean anomaly
189.8007°
Eccentric anomaly
189.47684°
Mean motion
3.61307 °/min
Orbital period
99.64 mins
BSTAR
0.00034371
Loading maneuver chart data...
Computing Atmospheric mass density...
Loading historical data...
Loading historical data...
Loading historical data...
Loading historical data...
Loading historical data...
Loading historical data...
Loading historical data...

Documentation

Showing up to 5 results
|